Andrews, NC

5:13 PM EST on November 18, 2017 (GMT -0500)
Andrews

Weather History for KRHP - June, 2014

Change the Weather History Date:

Monday, June 9, 2014

  Actual Average (KMMI) Record (KMMI)
Temperature  
Mean Temperature 69 °F -  
Max Temperature 80 °F 84 °F 82 °F (2016)
Min Temperature 58 °F 60 °F 51 °F (2016)
Cooling Degree Days 4    
Growing Degree Days 19 (Base 50)    
Moisture  
Dew Point 62 °F    
Average Humidity 83    
Maximum Humidity 100    
Minimum Humidity 53    
Precipitation  
Precipitation 0.00 in - - ()
Sea Level Pressure  
Sea Level Pressure 29.97 in    
Wind  
Wind Speed 2 mph (West)    
Max Wind Speed 14 mph    
Max Gust Speed 17 mph    
Visibility 8 miles    
Events Fog    
Averages and records for this station are not official NWS values.
T = Trace of Precipitation, MM = Missing Value Source: NWS Daily Summary

Daily Weather History Graph

Daily Weather History Graph

Search for Another Location

Airport or City:

Trip Planner

Search our weather history database for the weather conditions in past years. The results will help you decide how hot, cold, wet, or windy it might be!

Date:

Astronomy

Jun. 09, 2014 Rise Set
Actual Time 6:20 AM EDT 8:49 PM EDT
Civil Twilight 5:50 AM EDT 9:18 PM EDT
Nautical Twilight 5:14 AM EDT 9:55 PM EDT
Astronomical Twilight 4:34 AM EDT 10:35 PM EDT
Moon 5:15 PM EDT (6/9) 3:39 AM EDT (6/9)
Length of Visible Light 15h 27m
Length of Day
14h 28m
Waxing Gibbous, 85% of the Moon is Illuminated
Jun 9
Waxing Gibbous
Jun 13
Full
Jun 19
Last Quarter
Jun 27
New
Jul 5
First Quarter

Hourly Weather History & Observations

Time (EDT) Temp. Heat Index Dew Point Humidity Pressure Visibility Wind Dir Wind Speed Gust Speed Precip Events Conditions
12:15 AM 62.2 °F - 61.2 °F 96% 29.99 in 10.0 mi Calm Calm - N/A   Clear
12:35 AM 62.4 °F - 61.0 °F 95% 29.99 in 10.0 mi Calm Calm - N/A   Clear
12:55 AM 62.2 °F - 60.8 °F 95% 29.98 in 10.0 mi Calm Calm - N/A   Clear
1:15 AM 62.1 °F - 61.7 °F 99% 29.98 in 10.0 mi Calm Calm - N/A   Clear
1:35 AM 61.7 °F - 61.0 °F 97% 29.97 in 10.0 mi Calm Calm - N/A   Clear
1:55 AM 61.2 °F - 60.8 °F 99% 29.96 in 7.0 mi Calm Calm - N/A   Clear
2:15 AM 60.8 °F - 60.3 °F 98% 29.96 in 10.0 mi Calm Calm - N/A   Clear
2:35 AM 60.8 °F - 60.3 °F 98% 29.96 in 7.0 mi Calm Calm - N/A   Clear
2:55 AM 60.3 °F - 59.5 °F 97% 29.96 in 10.0 mi Calm Calm - N/A   Scattered Clouds
3:15 AM 59.9 °F - 59.0 °F 97% 29.96 in 10.0 mi Calm Calm - N/A   Mostly Cloudy
3:35 AM 60.1 °F - 59.7 °F 99% 29.95 in 7.0 mi Calm Calm - N/A   Overcast
3:55 AM 60.1 °F - 59.5 °F 98% 29.95 in 10.0 mi Calm Calm - N/A   Overcast
4:15 AM 59.4 °F - 59.2 °F 99% 29.96 in 1.0 mi Calm Calm - N/A   Overcast
4:35 AM 59.9 °F - 59.9 °F 100% 29.97 in 0.2 mi Calm Calm - N/A Fog Fog
4:55 AM 59.2 °F - 59.0 °F 99% 29.96 in 4.0 mi Calm Calm - N/A   Overcast
5:15 AM 59.9 °F - 59.5 °F 99% 29.96 in 0.2 mi NNE 3.5 mph - N/A Fog Fog
5:35 AM 59.4 °F - 59.4 °F 100% 29.96 in 0.8 mi Calm Calm - N/A   Overcast
5:55 AM 59.0 °F - 59.0 °F 100% 29.97 in 0.5 mi Calm Calm - N/A Fog Fog
6:15 AM 58.5 °F - 58.3 °F 99% 29.98 in 1.0 mi Calm Calm - N/A   Overcast
6:35 AM 58.1 °F - 58.1 °F 100% 29.99 in 0.2 mi NNW 3.5 mph - N/A Fog Fog
6:55 AM 58.6 °F - 58.6 °F 100% 29.99 in 0.5 mi Calm Calm - N/A Fog Fog
7:15 AM 59.0 °F - 59.0 °F 100% 29.99 in 0.2 mi NE 4.6 mph - N/A Fog Fog
7:35 AM 59.0 °F - 59.0 °F 100% 29.99 in 0.2 mi Calm Calm - N/A Fog Fog
7:55 AM 59.2 °F - 59.2 °F 100% 29.99 in 1.5 mi Calm Calm - N/A   Overcast
8:15 AM 59.5 °F - 59.4 °F 99% 29.99 in 1.8 mi Calm Calm - N/A   Overcast
8:35 AM 60.8 °F - 60.6 °F 99% 29.99 in 3.0 mi Calm Calm - N/A   Overcast
8:55 AM 61.9 °F - 60.8 °F 96% 29.99 in 10.0 mi Calm Calm - N/A   Overcast
9:15 AM 63.5 °F - 60.8 °F 91% 30.00 in 10.0 mi Calm Calm - N/A   Scattered Clouds
9:35 AM 66.0 °F - 61.9 °F 86% 30.00 in 10.0 mi SW 3.5 mph - N/A   Scattered Clouds
9:55 AM 67.1 °F - 62.1 °F 84% 30.00 in 10.0 mi Calm Calm - N/A   Scattered Clouds
10:15 AM 70.0 °F - 61.9 °F 75% 30.00 in 10.0 mi Calm Calm - N/A   Scattered Clouds
10:35 AM 70.3 °F - 62.4 °F 76% 30.01 in 10.0 mi Calm Calm - N/A   Mostly Cloudy
10:55 AM 71.1 °F - 62.8 °F 75% 30.00 in 10.0 mi Calm Calm - N/A   Mostly Cloudy
11:15 AM 72.3 °F - 64.2 °F 76% 29.98 in 10.0 mi East 3.5 mph - N/A   Clear
11:35 AM 73.6 °F - 64.9 °F 74% 29.97 in 10.0 mi ENE 5.8 mph - N/A   Clear
11:55 AM 74.1 °F - 64.2 °F 71% 29.97 in 10.0 mi Calm Calm - N/A   Clear
12:35 PM 75.4 °F - 65.1 °F 70% 29.99 in 10.0 mi West 6.9 mph - N/A   Scattered Clouds
12:55 PM 76.3 °F - 66.2 °F 71% 29.99 in 10.0 mi WNW 4.6 mph - N/A   Scattered Clouds
1:15 PM 76.3 °F - 65.1 °F 68% 29.97 in 10.0 mi West 5.8 mph - N/A   Scattered Clouds
1:35 PM 77.2 °F - 65.1 °F 66% 29.97 in 10.0 mi West 5.8 mph - N/A   Scattered Clouds
1:55 PM 79.3 °F - 65.3 °F 62% 29.97 in 10.0 mi WSW 6.9 mph - N/A   Scattered Clouds
2:15 PM 79.2 °F - 64.2 °F 60% 29.97 in 10.0 mi WSW 12.7 mph 17.3 mph N/A   Mostly Cloudy
2:35 PM 78.3 °F - 64.2 °F 62% 29.96 in 10.0 mi SW 8.1 mph - N/A   Overcast
3:35 PM 80.6 °F 81.9 °F 63.0 °F 55% 29.95 in 10.0 mi West 13.8 mph - N/A   Scattered Clouds
3:55 PM 80.1 °F 81.1 °F 61.5 °F 53% 29.95 in 10.0 mi West 12.7 mph - N/A   Scattered Clouds
4:15 PM 80.1 °F 81.1 °F 61.5 °F 53% 29.94 in 10.0 mi SW 9.2 mph - N/A   Scattered Clouds
4:35 PM 79.0 °F - 61.3 °F 55% 29.94 in 10.0 mi West 9.2 mph - N/A   Mostly Cloudy
5:15 PM 79.2 °F - 63.0 °F 57% 29.94 in 10.0 mi West 9.2 mph - N/A   Clear
5:35 PM 79.7 °F - 63.1 °F 57% 29.94 in 10.0 mi SW 8.1 mph - N/A   Scattered Clouds
5:55 PM 80.1 °F 81.6 °F 63.7 °F 57% 29.94 in 10.0 mi West 8.1 mph - N/A   Scattered Clouds
6:15 PM 78.1 °F - 63.5 °F 61% 29.93 in 10.0 mi WNW 9.2 mph - N/A   Scattered Clouds
6:35 PM 78.6 °F - 63.1 °F 59% 29.94 in 10.0 mi WNW 5.8 mph - N/A   Clear
6:55 PM 78.3 °F - 63.0 °F 59% 29.94 in 10.0 mi West 6.9 mph - N/A   Clear
7:15 PM 77.9 °F - 63.7 °F 61% 29.94 in 10.0 mi West 3.5 mph - N/A   Clear
7:35 PM 76.5 °F - 64.0 °F 65% 29.94 in 10.0 mi Calm Calm - N/A   Clear
7:55 PM 75.6 °F - 64.8 °F 69% 29.94 in 10.0 mi Calm Calm - N/A   Clear
8:15 PM 73.4 °F - 64.8 °F 74% 29.95 in 10.0 mi NW 3.5 mph - N/A   Clear
8:35 PM 72.3 °F - 66.6 °F 82% 29.95 in 10.0 mi Calm Calm - N/A   Clear
8:55 PM 70.9 °F - 64.6 °F 80% 29.96 in 10.0 mi NW 3.5 mph - N/A   Clear
9:15 PM 69.1 °F - 64.4 °F 85% 29.96 in 10.0 mi Calm Calm - N/A   Clear
9:35 PM 67.8 °F - 64.8 °F 90% 29.97 in 10.0 mi Calm Calm - N/A   Clear
9:55 PM 66.9 °F - 63.7 °F 89% 29.98 in 10.0 mi North 3.5 mph - N/A   Clear
10:15 PM 66.2 °F - 63.7 °F 92% 29.99 in 10.0 mi Calm Calm - N/A   Clear
10:35 PM 65.3 °F - 63.1 °F 93% 29.99 in 10.0 mi Calm Calm - N/A   Clear
10:55 PM 64.8 °F - 63.3 °F 95% 29.99 in 10.0 mi Calm Calm - N/A   Clear
11:15 PM 64.6 °F - 62.8 °F 94% 30.00 in 10.0 mi Calm Calm - N/A   Clear
11:35 PM 64.2 °F - 63.3 °F 97% 30.01 in 10.0 mi Calm Calm - N/A   Mostly Cloudy
11:55 PM 64.0 °F - 63.0 °F 96% 30.01 in 10.0 mi Calm Calm - N/A   Mostly Cloudy